Hlavní strana
METAR-TAF:

METAR-TAF

Letiště :

Blytheville Municipal Airport

Blytheville, Arkansas, Spojené státy americké

zeměpisná šířka: 35-56-20N, zeměpisná délka: 089-49-57W, výška: 78 m

Aktuální stav počasí

Zpráva byla vytvořena před 34 minutami, v 13:53 UTC
Severoseverovýchodní vítr 7 kt
Teplota 2°C
Vlhkost vzduchu 87%
Tlak 1020 hPa
Viditelnost: 16.1 km
Zataženo ve výšce 200 ft

METAR: KHKA 281353Z AUTO 03007KT 10SM OVC002 02/00 A3011 RMK AO2 SLP197 T00170000

Čas: 08:27 (14:27 UTC)


TAF: chybějící

Stav a předpovědi počasí z více než 4 000 letišť (zprávy METAR a TAF).

Červené a žluté tečky na mapě představují dostupné meteorologické stanice.

Když kurzor umístíte na tečku, zobrazí se název stanice.

Pak kliknutím zobrazíte stav a předpověď počasí.

Chcete-li změnit mapu, kliknutím na zelené tlačítko se znaménkem +mapu přiblížíte, kliknutím na zelené tlačítko se znaménkem – mapu oddálíte a kliknutím na zelené šipky přejdete na sousední mapy.


METAR-TAF: